Location: Bouchavesnes-Bergen
(49.9859°N, 2.9203°E)
Time: 04:34:59
(UTC+00:00)

BREEZE-M DEB (TANK) - Pass Details

Date: 09 March 2021
Orbit: 309 x 13093 km, 49.6° (Epoch: 11 April)

Event Time Altitude Azimuth Distance (km) Brightness Sun altitude
Exits shadow 05:00:03 18° 265° (W) 1,736 4.7 -12.8°
Maximum altitude 05:03:10 86° 176° (S) 470 2.4 -12.3°
Drops below altitude 10° 05:05:34 10° 89° (E) 1,296 6.2 -11.9°
Sets 05:07:01 0° 89° (E) 2,038 7.8 -11.7°
